OpenBCM V1.13 (Linux)

Packet Radio Mailbox

DB0FHN

[JN59NK Nuernberg]

 Login: GUEST





  
LU9DCE > KEP      11.06.19 20:32l 243 Lines 12013 Bytes #999 (0) @ WW
BID : 26551_LU9DCE
Read: DF7EAV DJ6UX GUEST
Subj: TLE 11 06
Path: DB0FHN<OE2XZR<OE5XBR<OE1XAB<HG8LXL<XE1FH<ZL2BAU<GB7YEW<VA3TOK<LU9DCE
Sent: 190611/1800Z 26551@LU9DCE.TOR.BA.ARG.SOAM LinBPQ6.0.18

            __    _  _  ___  ____   ___  ____    ____  ____  ____
           (  )  / )( \/ _ \(    \ / __)(  __)  (  _ \(  _ \/ ___)
           / (_/\) \/ (\__  )) D (( (__  ) _)    ) _ ( ) _ (\___ \
           \____/\____/(___/(____/ \___)(____)  (____/(____/(____/
               ESTACION DE PACKET RADIO - BUENOS AIRES (GF05OM)
                   BOLETINES INFORMATIVOS PROGRAMADOS (BIP)
                  SLACKWARE LINUX - HELLOCODELINUX@GMAIL.COM

+----------------------------------------------------------------------------+
OSCAR 7
1  7530U 74089B   19162.53515271 -.00000033  00000-0  73750-4 0  9994
2  7530 101.7431 130.2694 0012280   3.2113 111.5000 12.53638445 39621
OSCAR 11 (UoSAT 2)
1 14781U 84021B   19161.60397187  .00000040  00000-0  10996-4 0  9998
2 14781  97.6111 186.7051 0008266 357.2397   2.8770 14.83089206897564
OSCAR 19 (LUSAT)
1 20442U 90005G   19162.40711244 -.00000009  00000-0  13054-4 0  9995
2 20442  98.6482 104.4194 0011947 165.4474 194.7056 14.32926583535331
EYESAT A
1 22825U 93061C   19162.22339532  .00000004  00000-0  19374-4 0  9998
2 22825  98.9026 150.6902 0008907  27.6753 332.4901 14.30060153340880
ITAMSAT
1 22826U 93061D   19162.50660271  .00000004  00000-0  19287-4 0  9990
2 22826  98.8966 150.9721 0009203  15.9432 344.2038 14.30393736341125
RADIO ROSTO
1 23439U 94085A   19162.50955580 -.00000030  00000-0  36264-3 0  9991
2 23439  64.8148 127.7384 0146235 114.6208 247.0028 11.27568126  7244
JAS 2
1 24278U 96046B   19162.37682917  .00000003  00000-0  41571-4 0  9995
2 24278  98.5360 316.7802 0349277 258.9595  97.2082 13.53091800126814
TECHSAT 1B
1 25397U 98043D   19162.38057302 -.00000023  00000-0  91654-5 0  9993
2 25397  98.6884 102.6133 0002362  72.3409 287.8027 14.23666409 86835
ISS (ZARYA)
1 25544U 98067A   19162.27016950  .00001136  00000-0  26891-4 0  9990
2 25544  51.6446  30.6641 0007806  37.6690 119.4395 15.51190303174338
PCSAT
1 26931U 01043C   19162.36942751 -.00000040  00000-0  16569-4 0  9991
2 26931  67.0520  22.5763 0006582 279.5499  80.4858 14.30544195923928
SAUDISAT 1C
1 27607U 02058C   19162.15923367 -.00000043  00000-0  14855-4 0  9997
2 27607  64.5559  72.6260 0081578 257.9749 101.2202 14.75551407885922
CUTE-1
1 27844U 03031E   19162.47685050  .00000039  00000-0  37305-4 0  9990
2 27844  98.6835 170.7985 0010889  56.4668 303.7548 14.22180320827262
CUBESAT XI 4
1 27848U 03031J   19162.46693397  .00000033  00000-0  34813-4 0  9991
2 27848  98.6914 171.2873 0010894  66.5889 293.6433 14.21775080827115
MOZHAYETS 4
1 27939U 03042A   19162.40778376  .00000055  00000-0  18489-4 0  9994
2 27939  98.0393 298.3663 0014258  90.8315 269.4533 14.66783642839477
CUBESAT XI 5
1 28895U 05043F   19162.19360947  .00000107  00000-0  29372-4 0  9997
2 28895  97.9582 305.1821 0017135  20.2796 339.9084 14.63666712726381
CUTE-1.7+APD II
1 32785U 08021C   19162.15550179  .00000174  00000-0  24377-4 0  9997
2 32785  97.5491 162.2256 0011577 290.7859  69.2118 14.88307565602560
DELFI C3
1 32789U 08021G   19161.64988497 +.00000632 +00000-0 +46267-4 0  9993
2 32789 097.4646 211.5583 0013276 146.4366 213.7705 15.06935083605658
SEEDS
1 32791U 08021J   19162.52224349  .00000179  00000-0  23541-4 0  9999
2 32791  97.5276 168.5413 0011714 260.8908  99.0985 14.90816860603041
YUBELEINY
1 32953U 08025A   19162.48152353  .00000021  00000-0  75656-4 0  9993
2 32953  82.5003 149.2495 0019833 141.3265 218.9242 12.43089941501412
PRISM (HITOMI)
1 33493U 09002B   19161.57262337  .00000293  00000-0  31215-4 0  9996
2 33493  98.1219  82.2194 0014435 206.3182 153.7306 14.96642902563933
KKS-1 (KISEKI)
1 33499U 09002H   19162.55396921  .00000095  00000-0  21987-4 0  9993
2 33499  98.3507   1.0343 0008201 223.7060 136.3499 14.75440215558178
SWISSCUBE
1 35932U 09051B   19161.97030373  .00000124  00000-0  38984-4 0  9990
2 35932  98.5873 327.7176 0007627 179.8981 180.2218 14.56282887515657
BEESAT
1 35933U 09051C   19161.97374672  .00000103  00000-0  34219-4 0  9998
2 35933  98.5901 329.4759 0005555 190.3333 169.7750 14.56372264515767
ITUPSAT 1
1 35935U 09051E   19162.16445743  .00000067  00000-0  26626-4 0  9992
2 35935  98.6011 329.9109 0007897 190.4173 169.6861 14.55532521515541
XIWANG-1 (HOPE-1)
1 36122U 09072B   19162.21128183 -.00000047  00000-0 -12018-4 0  9996
2 36122 100.0727 164.9425 0007678   9.2582 350.8674 13.16349595455898
TISAT 1
1 36799U 10035E   19162.36779503  .00000438  00000-0  50252-4 0  9995
2 36799  98.1549 314.2777 0013655 108.4770 251.7932 14.91098735483674
JUGNU
1 37839U 11058B   19161.06731455  .00000303  00000-0  19646-4 0  9990
2 37839  19.9627  27.0744 0018910 231.8973 293.9955 14.12652011396038
SRMSAT
1 37841U 11058D   19161.09502177  .00000289  00000-0  13541-4 0  9994
2 37841  19.9723  83.5012 0012017 102.5755  17.3348 14.10633193395476
M-CUBED/EXP-1 PRIME
1 37855U 11061F   19161.95661567  .00000957  00000-0  55621-4 0  9994
2 37855 101.7159  53.5856 0173770  99.7146 262.3740 15.05394641415616
HORYU 2
1 38340U 12025D   19161.64243946 +.00000138 +00000-0 +28201-4 0  9993
2 38340 098.3294 199.9917 0012370 144.6148 215.5883 14.75716441369562
STRAND 1
1 39090U 13009E   19162.53500266  .00000032  00000-0  26312-4 0  9993
2 39090  98.4892   8.6141 0008303 316.3643  43.6885 14.35086405329366
SOMP
1 39134U 13015E   19161.07067307  .00001011  00000-0  55574-4 0  9991
2 39134  64.8642  48.3685 0029569 304.7102  55.1241 15.20137445339289
BEESAT 3
1 39135U 13015F   19161.10936799  .00000975  00000-0  58170-4 0  9999
2 39135  64.8691  66.4195 0019732 323.7321  36.2466 15.17447553338947
BEESAT 2
1 39136U 13015G   19162.19800310  .00000724  00000-0  46468-4 0  9998
2 39136  64.8699  66.7078 0018956 302.5059  57.4235 15.16878613339033
CUBEBUG 1
1 39153U 13018D   19162.53179256  .00000134  00000-0  24416-4 0  9990
2 39153  97.9778 260.6970 0016113 217.7542 142.2541 14.80564235330755
ZACUBE
1 39417U 13066B   19161.59809852  .00000168  00000-0  27317-4 0  9993
2 39417  97.5625 175.5547 0060389  61.3682 299.3587 14.81111104299843
TRITON 1
1 39427U 13066M   19162.50214671  .00000176  00000-0  35980-4 0  9999
2 39427  97.6753 140.3251 0113525 187.7495 172.1961 14.67836929297288
GOMX 1
1 39430U 13066Q   19162.42263317  .00000160  00000-0  38420-4 0  9990
2 39430  97.7464 119.4535 0149830 277.3923  81.0269 14.59249627295544
HUMSAT D
1 39433U 13066T   19161.63393047 +.00000241 +00000-0 +28852-4 0  9997
2 39433 097.5541 209.4687 0029844 330.2963 029.6560 14.92184038300690
CUBEBUG 2
1 39440U 13066AA  19161.54752569  .00000179  00000-0  31615-4 0  9994
2 39440  97.6017 160.4660 0081765 111.0172 249.9809 14.75849419298771
FUNCUBE 1
1 39444U 13066AE  19161.60312811  .00000216  00000-0  32803-4 0  9999
2 39444  97.5606 177.4970 0059440  55.4411 305.2392 14.81928791298739
UWE-3
1 39446U 13066AG  19162.51317021  .00000177  00000-0  29941-4 0  9995
2 39446  97.5809 168.3879 0071669  83.6619 277.2749 14.78384269298201
SPROUT
1 39770U 14029E   19162.29847851  .00000441  00000-0  54949-4 0  9999
2 39770  97.8837 265.6389 0010296 106.8602 253.3747 14.87329072273736
UNISAT 6
1 40012U 14033C   19161.59745264  .00000128  00000-0  26356-4 0  9995
2 40012  97.7588  28.5580 0059543 123.1429 237.5513 14.73973803267498
DUCHIFAT 1
1 40021U 14033M   19162.02581326  .00000257  00000-0  32058-4 0  9990
2 40021  97.9241  86.5940 0014460  76.5999 283.6830 14.90621164270400
QB50P1
1 40025U 14033R   19161.56865655 +.00000202 +00000-0 +27515-4 0  9994
2 40025 097.9065 081.2657 0014001 086.4073 273.8744 14.88937305269608
CHUBUSAT 1
1 40300U 14070C   19162.15378052  .00000594  00000-0  28813-4 0  9993
2 40300  97.3266 236.5250 0021519  81.4478 302.7338 15.22073697254879
NUDT-PHONESAT
1 40900U 15049B   19162.41832410  .00001703  00000-0  75918-4 0  9999
2 40900  97.4369 171.8256 0011879 203.6968 266.8257 15.22748135206555
ZDPS 2A
1 40901U 15049C   19162.36166914  .00000605  00000-0  33315-4 0  9998
2 40901  97.4593 168.2911 0011988 224.5998 244.4366 15.17707129206127
ZDPS 2B
1 40902U 15049D   19162.58514704  .00000902  00000-0  48264-4 0  9996
2 40902  97.4536 166.0344 0012191 219.8463 256.1912 15.17518083206139
XW-2A
1 40903U 15049E   19162.44801822  .00001629  00000-0  40382-4 0  9992
2 40903  97.3378 205.1706 0013808 164.4105 304.2627 15.41811878209130
KAITUO 1A
1 40904U 15049F   19162.53950516  .00000569  00000-0  33630-4 0  9998
2 40904  97.4662 164.6716 0013000 229.6820 243.9046 15.15355657205915
OBJECT G
1 40905U 15049G   19162.41519625  .00000280  00000-0  18871-4 0  9998
2 40905  97.4699 162.1143 0014296 224.2674 241.9447 15.14281768205776
XW-2C
1 40906U 15049H   19162.48297023  .00000721  00000-0  41318-4 0  9993
2 40906  97.4669 164.6812 0013417 220.3551 291.4630 15.15662107205909
XW-2D
1 40907U 15049J   19162.52099118  .00000546  00000-0  32003-4 0  9990
2 40907  97.4647 164.3963 0013033 216.3073 260.0734 15.15847536205928
LILACSAT 2
1 40908U 15049K   19162.52569317  .00000361  00000-0  23573-4 0  9991
2 40908  97.4779 163.2713 0014663 223.6773 253.4123 15.13794154205725
XW-2F
1 40910U 15049M   19162.49609741  .00000770  00000-0  42003-4 0  9999
2 40910  97.4623 166.3336 0013619 209.7395 301.5057 15.17271351205922
XW-2B
1 40911U 15049N   19162.35354552  .00000485  00000-0  28844-4 0  9992
2 40911  97.4674 164.8764 0012758 217.9385 248.9580 15.15776882205797
KAITUO 1B
1 40912U 15049P   19162.47318273  .00000966  00000-0  48519-4 0  9991
2 40912  97.4494 169.9221 0014234 191.4403 325.3157 15.19579889206210
TIANWANG 1C (TW-1C)
1 40926U 15051B   19162.37567307  .00010770  00000-0  15839-3 0  9994
2 40926  97.1355 208.5589 0009306  49.7050   5.1724 15.55585245209020
